Location: *
(60.1759°S, 155.0663°W)
Time: 01:21:07
(UTC+00:00)

Cosmos 2285 Rocket - Pass Details

Date: 17 September 2019
Orbit: 970 x 1000 km, 74.0° (Epoch: 13 October)

Event Time Altitude Azimuth Distance (km) Brightness Sun altitude
Exits shadow 13:36:36 33° 279° (W) 1,618 4.7 -20.5°
Maximum altitude 13:39:11 50° 223° (SW) 1,248 4.5 -20.2°
Drops below altitude 10° 13:45:26 10° 148° (SSE) 2,767 7.3 -19.6°
Sets 13:48:05 0° 142° (SE) 3,714 8.3 -19.3°
